Printer-friendly version

IAU Minor Planet Center

Minor Planet Center

MPEC 2007-T26 : 2007 TK5

The following Minor Planet Electronic Circular may be linked-to from your own Web pages, but must not otherwise be redistributed electronically.


Read MPEC 2007-T25 Read MPEC 2007-T27


M.P.E.C. 2007-T26                                Issued 2007 Oct. 8, 16:35 UT

     The Minor Planet Electronic Circulars contain information on unusual
         minor planets and routine data on comets.  They are published
   on behalf of Commission 20 of the International Astronomical Union by the
          Minor Planet Center, Smithsonian Astrophysical Observatory,
                          Cambridge, MA 02138, U.S.A.

             Prepared using the Tamkin Foundation Computer Network

                              MPC@CFA.HARVARD.EDU
          URL http://www.cfa.harvard.edu/iau/mpc.html  ISSN 1523-6714

                                   2007 TK5

Observations:
     K07T05K* C2007 10 07.21227 00 35 58.70 +27 12 12.3          20.4 V ET026G96
     K07T05K  C2007 10 07.21926 00 35 56.18 +27 12 40.1          20.6 V ET026G96
     K07T05K  C2007 10 07.22618 00 35 53.70 +27 13 07.6          20.7 V ET026G96
     K07T05K  C2007 10 07.23308 00 35 51.25 +27 13 35.1          20.4 V ET026G96
     K07T05K  C2007 10 07.29425 00 35 29.04 +27 17 38.5          20.4 V ET026G96
     K07T05K  C2007 10 07.30518 00 35 25.04 +27 18 21.6          20.5 V ET026G96
     K07T05K  C2007 10 07.30589 00 35 24.79 +27 18 24.5          20.8 V ET026G96
     K07T05K  C2007 10 07.30659 00 35 24.54 +27 18 27.3          20.6 V ET026G96
     K07T05K  C2007 10 07.30730 00 35 24.28 +27 18 30.2          20.6 V ET026G96
     K07T05K  C2007 10 07.38937 00 34 54.19 +27 23 53.5          20.8 V ET026G96
     K07T05K  C2007 10 07.38996 00 34 54.01 +27 23 55.6          20.5 V ET026G96
     K07T05K  C2007 10 07.39055 00 34 53.79 +27 23 58.2          20.7 V ET026G96
     K07T05K  C2007 10 07.39114 00 34 53.58 +27 24 00.2          20.4 V ET026G96
     K07T05K  C2007 10 07.80009 00 32 31.35 +27 51 39.8          20.0 R ET026024
     K07T05K  C2007 10 07.80310 00 32 30.10 +27 51 52.5          20.2 V ET026A74
     K07T05K  C2007 10 07.80862 00 32 28.14 +27 52 16.6                 ET026024
     K07T05K  C2007 10 07.82261 00 32 22.73 +27 53 16.9                 ET026024
     K07T05K  C2007 10 07.82559 00 32 21.51 +27 53 29.0          20.2 V ET026A74
     K07T05K  C2007 10 07.83133 00 32 19.39 +27 53 53.7                 ET026024
     K07T05K  C2007 10 07.84844 00 32 12.67 +27 55 06.9          20.1 V ET026A74
     K07T05K  C2007 10 07.87608 00 32 01.73 +27 57 08.7                 ET026246
     K07T05K  C2007 10 07.88063 00 32 00.05 +27 57 25.3                 ET026246
     K07T05K  C2007 10 07.88184 00 31 59.57 +27 57 33.4                 ET026246
     K07T05K  C2007 10 07.88257 00 31 59.18 +27 57 34.6                 ET026246
     K07T05K  C2007 10 07.88321 00 31 58.97 +27 57 37.7                 ET026246
     K07T05K  C2007 10 07.88406 00 31 58.64 +27 57 42.3                 ET026246
     K07T05K  C2007 10 07.88487 00 31 58.33 +27 57 46.6                 ET026246
     K07T05K  C2007 10 07.89204 00 31 55.52 +27 58 16.1          20.6 V ET026B21
     K07T05K  C2007 10 07.89424 00 31 54.65 +27 58 26.1          21.3 V ET026B21
     K07T05K  C2007 10 07.89642 00 31 53.74 +27 58 35.6          21.3 V ET026B21
     K07T05K  C2007 10 07.89862 00 31 52.88 +27 58 44.2          20.6 V ET026B21
     K07T05K  C2007 10 08.25354 00 29 35.05 +28 24 42.5          20.7 V ET026G96
     K07T05K  C2007 10 08.25635 00 29 33.87 +28 24 55.1          20.7 V ET026G96
     K07T05K  C2007 10 08.25917 00 29 32.66 +28 25 07.8          20.4 V ET026G96
     K07T05K  C2007 10 08.26199 00 29 31.44 +28 25 20.3          20.7 V ET026G96
     K07T05K  C2007 10 08.27945 00 29 24.03 +28 26 38.6          21.0 R ET026651
     K07T05K  C2007 10 08.28165 00 29 23.08 +28 26 48.9          20.8 R ET026651
     K07T05K  C2007 10 08.28275 00 29 22.61 +28 26 54.0          21.0 R ET026651

Observer details:
024 Heidelberg-Konigstuhl.  Observer F. Hormuth.  0.70-m reflector + CCD.
246 Klet Observatory-KLENOT.  Observers J. Ticha, M. Tichy.  Measurer M. Tichy.
    1.06-m KLENOT Telescope + CCD.
651 Grasslands Observatory, Tucson.  Observer J. E. McGaha.  0.62-m f/5.1
    Newtonian reflector + CCD.
A74 Bergen-Enkheim Observatory.  Observer U. Suessenberger.  0.36-m f/4.6
    Schmidt-Cassegrain + CCD.
B21 Gaisberg Observatory, Schaerding.  Observer R. Gierlinger.  0.6-m f/3.3
    Newtonian reflector + CCD.
G96 Mt. Lemmon Survey.  Observers A. R. Gibbs, E. Beshore.  Measurers
    E. C. Beshore, A. Boattini, G. J. Garradd, A. R. Gibbs, A. D. Grauer,
    R. E. Hill, R. A. Kowalski, S. M. Larson, R. H. McNaught.  1.5-m reflector
    + CCD.

Orbital elements:
2007 TK5                                                 Earth MOID = 0.0543 AU
Epoch 2007 Oct. 27.0 TT = JDT 2454400.5                 MPC
M 340.31816              (2000.0)            P               Q
n   0.46788393     Peri.  165.02253     -0.53021982     -0.84690770
a   1.6432764      Node   316.97711     +0.77171753     -0.46243374
e   0.6668519      Incl.    3.37594     +0.35116804     -0.26249263
P   2.11           H   23.5           G   0.15           U   9
Residuals in seconds of arc
071007 G96  0.2+  0.1+    071007 024  0.2-  0.1-    071007 246  0.6+  1.3+
071007 G96  0.0   0.0     071007 A74  1.1-  0.3+    071007 B21  0.2+  0.2-
071007 G96  0.0   0.1-    071007 024  0.4+  0.1+    071007 B21  0.2+  0.4+
071007 G96  0.4+  0.1-    071007 024  0.2-  0.2+    071007 B21  0.4-  0.6+
071007 G96  0.0   0.1+    071007 A74  0.7-  0.2+    071007 B21  0.3-  0.3-
071007 G96  0.2-  0.1-    071007 024  0.1+  0.4-    071008 G96  0.1-  0.2-
071007 G96  0.0   0.0     071007 A74  0.8-  0.1-    071008 G96  0.1+  0.1-
071007 G96  0.0   0.0     071007 246  0.1-  1.0+    071008 G96  0.1-  0.0
071007 G96  0.0   0.1+    071007 246  1.3+  1.9-    071008 G96  0.4-  0.1-
071007 G96  0.6-  0.0     071007 246  1.3+  1.0+    071008 651  0.0   0.4-
071007 G96  0.1-  0.2-    071007 246  0.1-  0.9-    071008 651  0.1-  0.1+
071007 G96  0.1-  0.1+    071007 246  0.5+  0.5-    071008 651  0.1-  0.3+
071007 G96  0.1-  0.3-    071007 246  0.5+  0.4+

Ephemeris:
2007 TK5                 a,e,i = 1.64, 0.67, 3                   q = 0.5475
Date    TT    R. A. (2000) Decl.     Delta      r     Elong.  Phase     V
2007 10 07    00 37.13   +26 58.5    0.158    1.148   158.1    19.0    20.8
2007 10 09    00 24.27   +29 22.4    0.137    1.125   155.4    21.7    20.5
2007 10 11    00 05.93   +32 26.0    0.116    1.102   151.0    26.0    20.2
2007 10 13    23 38.23   +36 21.3    0.0973   1.078   144.3    32.7    20.0
2007 10 15    22 53.59   +41 09.5    0.0805   1.055   134.1    42.7    19.8
2007 10 17    21 38.68   +45 48.8    0.0673   1.031   119.3    57.4    19.8
2007 10 19    19 46.69   +46 31.4    0.0600   1.008    99.4    77.3    20.1
2007 10 21    17 53.95   +39 44.6    0.0605   0.984    77.1    99.5    21.0
2007 10 23    16 37.92   +29 26.6    0.0688   0.960    57.6   118.9    22.4
2007 10 25    15 52.48   +20 28.3    0.0827   0.936    43.2   133.3    24.0
2007 10 27    15 24.21   +13 50.6    0.0998   0.912    33.1   143.5    25.6

Gareth V. Williams           (C) Copyright 2007 MPC           M.P.E.C. 2007-T26

Read MPEC 2007-T25 Read MPEC 2007-T27


Our Web policy. Index to the CBAT/MPC/ICQ pages.


Valid HTML 4.01!